When you browse on this site, cookies collect data to enhance your experience and personalize the content and advertising you see.
Visit our Privacy Policy to learn more. By continuing to use the site, you agree to this use of cookies and data.
  • In Österreich
  • Länderverzeichnis
  • Für 7 Tage
  • Wassertemperatur
  • Wetterkarte
  • News
  • Widgets
  • user-avatar
    Anmelden

    Stündliche Wetter Supatá

    Heute, 17 Januar, Freitag

    Zeit Temperatur Niederschläge Wind Luftdruck Luftfeuchtigkeit
    00:00 +17°C° 0 mm 2 m/S 615 mmHg 80%
    01:00 +17°C° 0 mm 2 m/S 615 mmHg 85%
    02:00 +17°C° 0.1 mm 2 m/S 615 mmHg 83%
    03:00 +17°C° 0.1 mm 2 m/S 615 mmHg 82%
    04:00 +16°C° 0.1 mm 2 m/S 614 mmHg 81%
    05:00 +17°C° 0 mm 2 m/S 615 mmHg 80%
    06:00 +17°C° 0 mm 2 m/S 615 mmHg 80%
    07:00 +17°C° 0 mm 2 m/S 616 mmHg 79%
    08:00 +20°C° 0 mm 2 m/S 617 mmHg 71%
    09:00 +23°C° 0 mm 2 m/S 618 mmHg 63%
    10:00 +26°C° 0 mm 2 m/S 619 mmHg 55%
    11:00 +26°C° 0 mm 2 m/S 619 mmHg 52%
    12:00 +27°C° 0 mm 2 m/S 618 mmHg 49%
    13:00 +28°C° 0 mm 2 m/S 618 mmHg 47%
    14:00 +28°C° 0 mm 2 m/S 617 mmHg 49%
    15:00 +27°C° 0 mm 2 m/S 616 mmHg 51%
    16:00 +27°C° 0 mm 2 m/S 616 mmHg 53%
    17:00 +24°C° 0 mm 2 m/S 615 mmHg 62%
    18:00 +21°C° 0 mm 2 m/S 615 mmHg 70%
    19:00 +19°C° 0 mm 2 m/S 615 mmHg 78%
    20:00 +19°C° 0 mm 2 m/S 615 mmHg 78%
    21:00 +18°C° 0 mm 2 m/S 616 mmHg 78%
    22:00 +18°C° 0 mm 2 m/S 616 mmHg 77%
    23:00 +18°C° 0 mm 2 m/S 616 mmHg 76%

    Morgen, 18 Januar, Samstag

    Zeit Temperatur Niederschläge Wind Luftdruck Luftfeuchtigkeit
    00:00 +18°C° 0 mm 2 m/S 616 mmHg 75%
    01:00 +20°C° 0 mm 1 m/S 616 mmHg 74%
    02:00 +20°C° 0 mm 1 m/S 616 mmHg 75%
    03:00 +19°C° 0 mm 1 m/S 615 mmHg 76%
    04:00 +18°C° 0 mm 2 m/S 615 mmHg 76%
    05:00 +19°C° 0 mm 1 m/S 615 mmHg 77%
    06:00 +19°C° 0 mm 1 m/S 616 mmHg 77%
    07:00 +19°C° 0 mm 1 m/S 616 mmHg 78%
    08:00 +21°C° 0 mm 2 m/S 617 mmHg 70%
    09:00 +24°C° 0 mm 2 m/S 618 mmHg 61%
    10:00 +26°C° 0 mm 2 m/S 619 mmHg 53%
    11:00 +27°C° 0 mm 2 m/S 618 mmHg 52%
    12:00 +27°C° 0 mm 2 m/S 618 mmHg 51%
    13:00 +27°C° 0 mm 1 m/S 617 mmHg 50%
    14:00 +27°C° 0.1 mm 1 m/S 616 mmHg 52%
    15:00 +27°C° 0.1 mm 2 m/S 616 mmHg 54%
    16:00 +26°C° 0.1 mm 2 m/S 615 mmHg 57%
    17:00 +24°C° 0.1 mm 1 m/S 615 mmHg 64%
    18:00 +22°C° 0.1 mm 1 m/S 615 mmHg 72%
    19:00 +21°C° 0.1 mm 1 m/S 614 mmHg 80%
    20:00 +20°C° 0 mm 1 m/S 615 mmHg 80%
    21:00 +20°C° 0 mm 1 m/S 615 mmHg 80%
    22:00 +18°C° 0 mm 2 m/S 616 mmHg 80%
    23:00 +18°C° 0 mm 2 m/S 615 mmHg 80%

    übermorgen, 19 Januar, Sonntag

    Zeit Temperatur Niederschläge Wind Luftdruck Luftfeuchtigkeit
    00:00 +18°C° 0 mm 2 m/S 615 mmHg 79%
    01:00 +18°C° 0 mm 2 m/S 615 mmHg 79%
    02:00 +18°C° 0 mm 2 m/S 615 mmHg 78%
    03:00 +19°C° 0 mm 1 m/S 615 mmHg 78%
    04:00 +19°C° 0 mm 1 m/S 615 mmHg 77%
    05:00 +19°C° 0 mm 1 m/S 615 mmHg 77%
    06:00 +19°C° 0 mm 1 m/S 615 mmHg 78%
    07:00 +19°C° 0 mm 1 m/S 615 mmHg 78%
    08:00 +21°C° 0 mm 1 m/S 617 mmHg 70%
    09:00 +24°C° 0 mm 1 m/S 618 mmHg 62%
    10:00 +26°C° 0 mm 1 m/S 619 mmHg 54%
    11:00 +26°C° 0.1 mm 1 m/S 618 mmHg 53%
    12:00 +27°C° 0.1 mm 1 m/S 617 mmHg 53%
    13:00 +27°C° 0.1 mm 2 m/S 617 mmHg 52%
    14:00 +27°C° 0.1 mm 2 m/S 616 mmHg 54%
    15:00 +27°C° 0.1 mm 2 m/S 615 mmHg 55%
    16:00 +27°C° 0.1 mm 2 m/S 614 mmHg 56%
    17:00 +24°C° 0.2 mm 1 m/S 614 mmHg 66%
    18:00 +22°C° 0.2 mm 1 m/S 614 mmHg 75%
    19:00 +20°C° 0.2 mm 1 m/S 614 mmHg 85%
    20:00 +20°C° 0.2 mm 1 m/S 615 mmHg 86%
    21:00 +19°C° 0.2 mm 1 m/S 615 mmHg 86%
    22:00 +19°C° 0.2 mm 1 m/S 615 mmHg 87%
    23:00 +17°C° 0.3 mm 2 m/S 615 mmHg 87%

    20 Januar, Montag

    Zeit Temperatur Niederschläge Wind Luftdruck Luftfeuchtigkeit
    00:00 +17°C° 0.3 mm 2 m/S 615 mmHg 87%
    01:00 +17°C° 0.3 mm 2 m/S 614 mmHg 87%
    02:00 +16°C° 0.3 mm 2 m/S 614 mmHg 87%
    03:00 +16°C° 0.3 mm 2 m/S 614 mmHg 87%
    04:00 +16°C° 0.3 mm 2 m/S 613 mmHg 87%
    05:00 +16°C° 0.2 mm 1 m/S 614 mmHg 86%
    06:00 +18°C° 0.2 mm 1 m/S 615 mmHg 85%
    07:00 +18°C° 0.2 mm 1 m/S 615 mmHg 84%
    08:00 +20°C° 0.2 mm 1 m/S 616 mmHg 77%
    09:00 +22°C° 0.2 mm 1 m/S 617 mmHg 71%
    10:00 +24°C° 0.2 mm 1 m/S 618 mmHg 64%
    11:00 +24°C° 0.7 mm 1 m/S 618 mmHg 68%
    12:00 +24°C° 0.7 mm 1 m/S 617 mmHg 71%
    13:00 +24°C° 0.7 mm 1 m/S 616 mmHg 75%
    14:00 +24°C° 1.6 mm 1 m/S 615 mmHg 79%
    15:00 +23°C° 1.6 mm 1 m/S 615 mmHg 82%
    16:00 +23°C° 1.6 mm 1 m/S 614 mmHg 86%
    17:00 +22°C° 1.7 mm 1 m/S 614 mmHg 89%
    18:00 +19°C° 1.7 mm 0 m/S 614 mmHg 91%
    19:00 +18°C° 1.7 mm 0 m/S 615 mmHg 94%
    20:00 +18°C° 1.1 mm 0 m/S 615 mmHg 93%
    21:00 +19°C° 1.1 mm 1 m/S 615 mmHg 93%
    22:00 +19°C° 1.1 mm 1 m/S 616 mmHg 92%
    23:00 +19°C° 1.3 mm 1 m/S 615 mmHg 92%

    21 Januar, Dienstag

    Zeit Temperatur Niederschläge Wind Luftdruck Luftfeuchtigkeit
    00:00 +19°C° 1.3 mm 1 m/S 615 mmHg 92%
    01:00 +19°C° 1.3 mm 1 m/S 615 mmHg 92%
    02:00 +19°C° 0.5 mm 1 m/S 615 mmHg 92%
    03:00 +17°C° 0.5 mm 0 m/S 614 mmHg 93%
    04:00 +17°C° 0.5 mm 0 m/S 614 mmHg 93%
    05:00 +17°C° 0.5 mm 0 m/S 615 mmHg 93%
    06:00 +17°C° 0.5 mm 0 m/S 615 mmHg 94%
    07:00 +16°C° 0.5 mm 0 m/S 615 mmHg 94%
    08:00 +17°C° 0.7 mm 0 m/S 616 mmHg 94%
    09:00 +17°C° 0.7 mm 0 m/S 616 mmHg 94%
    10:00 +17°C° 0.7 mm 0 m/S 617 mmHg 94%
    11:00 +20°C° 1.1 mm 1 m/S 616 mmHg 94%
    12:00 +20°C° 1.1 mm 1 m/S 616 mmHg 94%
    13:00 +20°C° 1.1 mm 1 m/S 615 mmHg 94%
    14:00 +20°C° 0.7 mm 1 m/S 615 mmHg 94%
    15:00 +20°C° 0.7 mm 1 m/S 615 mmHg 94%
    16:00 +18°C° 0.7 mm 0 m/S 614 mmHg 94%
    17:00 +17°C° 0.3 mm 0 m/S 614 mmHg 94%
    18:00 +17°C° 0.3 mm 0 m/S 615 mmHg 94%
    19:00 +16°C° 0.3 mm 0 m/S 615 mmHg 95%
    20:00 +16°C° 0.1 mm 0 m/S 615 mmHg 94%
    21:00 +16°C° 0.1 mm 0 m/S 616 mmHg 93%
    22:00 +16°C° 0.1 mm 0 m/S 616 mmHg 92%
    23:00 +16°C° 0.1 mm 0 m/S 616 mmHg 92%

    22 Januar, Mittwoch

    Zeit Temperatur Niederschläge Wind Luftdruck Luftfeuchtigkeit
    00:00 +16°C° 0.1 mm 0 m/S 616 mmHg 92%
    01:00 +15°C° 0.1 mm 0 m/S 615 mmHg 92%
    02:00 +15°C° 0.1 mm 0 m/S 615 mmHg 92%
    03:00 +15°C° 0.1 mm 0 m/S 615 mmHg 93%
    04:00 +15°C° 0.1 mm 0 m/S 615 mmHg 93%
    05:00 +15°C° 0 mm 0 m/S 615 mmHg 92%
    06:00 +15°C° 0 mm 0 m/S 615 mmHg 92%
    07:00 +16°C° 0 mm 0 m/S 616 mmHg 91%
    08:00 +16°C° 0.1 mm 0 m/S 616 mmHg 89%
    09:00 +17°C° 0.1 mm 0 m/S 617 mmHg 86%
    10:00 +18°C° 0.1 mm 0 m/S 617 mmHg 84%
    11:00 +21°C° 0.3 mm 1 m/S 617 mmHg 83%
    12:00 +22°C° 0.3 mm 1 m/S 616 mmHg 81%
    13:00 +22°C° 0.3 mm 1 m/S 616 mmHg 80%
    14:00 +22°C° 0.6 mm 1 m/S 615 mmHg 82%
    15:00 +22°C° 0.6 mm 1 m/S 615 mmHg 85%
    16:00 +21°C° 0.6 mm 1 m/S 614 mmHg 87%
    17:00 +20°C° 0.6 mm 1 m/S 614 mmHg 90%
    18:00 +19°C° 0.6 mm 1 m/S 614 mmHg 93%
    19:00 +16°C° 0.6 mm 0 m/S 614 mmHg 95%
    20:00 +16°C° 0.3 mm 0 m/S 615 mmHg 96%
    21:00 +16°C° 0.3 mm 0 m/S 615 mmHg 96%
    22:00 +16°C° 0.3 mm 0 m/S 616 mmHg 96%
    23:00 +15°C° 0.1 mm 0 m/S 616 mmHg 96%
    Mehr zeigen